E22ZMG-1 Weather Reports


Display with metric or nautical units.
time (UTC)temp
F
wind
direction
speed
MPH
gust
MPH
rain 1hr
in
rain 24hr
in
rain mn
in
humidity
%
barometer
mb
20260509222641 88 0 0.0 0.0 0.00 0.00 0.00 68 975.0
20260509221615 87 0 0.0 0.0 0.00 0.00 0.00 68 975.0
20260509221137 87 0 0.0 0.0 0.00 0.00 0.00 68 975.0
20260509220113 88 0 0.0 0.0 0.00 0.00 0.00 67 975.0
20260509215048 88 0 0.0 0.0 0.00 0.00 0.00 66 975.0
20260509214023 88 0 0.0 0.0 0.00 0.00 0.00 67 975.0
20260509212957 87 0 0.0 0.0 0.00 0.00 0.00 67 975.0
20260509211932 87 0 0.0 0.0 0.00 0.00 0.00 68 974.0
20260509210906 87 0 0.0 0.0 0.00 0.00 0.00 68 974.0
20260509205841 87 0 0.0 0.0 0.00 0.00 0.00 67 975.0
20260509204006 87 0 0.0 0.0 0.00 0.00 0.00 68 975.0
20260509202940 88 0 0.0 0.0 0.00 0.00 0.00 67 975.0
20260509201915 87 0 0.0 0.0 0.00 0.00 0.00 67 975.0
20260509200851 88 0 0.0 0.0 0.00 0.00 0.00 65 975.0
20260509195826 89 0 0.0 0.0 0.00 0.00 0.00 65 975.0
20260509194801 88 0 0.0 0.0 0.00 0.00 0.00 66 975.0
20260509193735 89 0 0.0 0.0 0.00 0.00 0.00 64 975.0
20260509192711 89 0 0.0 0.0 0.00 0.00 0.00 64 975.0
20260509191646 89 0 0.0 0.0 0.00 0.00 0.00 64 975.0
20260509190621 89 0 0.0 0.0 0.00 0.00 0.00 64 975.0
20260509185555 89 0 0.0 0.0 0.00 0.00 0.00 64 976.0
20260509184530 90 0 0.0 0.0 0.00 0.00 0.00 63 976.0
20260509183505 90 0 0.0 0.0 0.00 0.00 0.00 63 976.0
20260509182440 89 0 0.0 0.0 0.00 0.00 0.00 65 976.0
20260509181415 88 0 0.0 0.0 0.00 0.00 0.00 65 976.0
20260509180350 88 0 0.0 0.0 0.00 0.00 0.00 64 976.0
20260509175325 90 0 0.0 0.0 0.00 0.00 0.00 62 976.0
20260509174259 89 0 0.0 0.0 0.00 0.00 0.00 62 976.0
20260509173234 90 0 0.0 0.0 0.00 0.00 0.00 62 976.0
20260509172209 90 0 0.0 0.0 0.00 0.00 0.00 62 976.0
20260509171144 90 0 0.0 0.0 0.00 0.00 0.00 61 976.0
20260509170118 89 0 0.0 0.0 0.00 0.00 0.00 63 976.0
20260509165054 91 0 0.0 0.0 0.00 0.00 0.00 61 977.0
20260509164029 89 0 0.0 0.0 0.00 0.00 0.00 63 977.0
20260509163003 90 0 0.0 0.0 0.00 0.00 0.00 63 977.0
20260509161938 89 0 0.0 0.0 0.00 0.00 0.00 64 977.0
20260509160912 88 0 0.0 0.0 0.00 0.00 0.00 66 977.0
20260509155847 87 0 0.0 0.0 0.00 0.00 0.00 66 977.0
20260509154822 87 0 0.0 0.0 0.00 0.00 0.00 66 977.0
20260509153758 87 0 0.0 0.0 0.00 0.00 0.00 66 977.0
20260509152733 89 0 0.0 0.0 0.00 0.00 0.00 63 977.0
20260509151707 88 0 0.0 0.0 0.00 0.00 0.00 63 977.0
20260509150642 89 0 0.0 0.0 0.00 0.00 0.00 63 977.0
20260509145617 89 0 0.0 0.0 0.00 0.00 0.00 62 977.0
20260509144553 89 0 0.0 0.0 0.00 0.00 0.00 61 976.0
20260509143527 89 0 0.0 0.0 0.00 0.00 0.00 61 976.0
20260509142503 89 0 0.0 0.0 0.00 0.00 0.00 62 976.0
20260509141437 89 0 0.0 0.0 0.00 0.00 0.00 61 976.0
20260509140412 89 0 0.0 0.0 0.00 0.00 0.00 61 976.0
20260509135347 90 0 0.0 0.0 0.00 0.00 0.00 60 976.0
20260509134321 90 0 0.0 0.0 0.00 0.00 0.00 59 976.0
20260509133256 88 0 0.0 0.0 0.00 0.00 0.00 62 976.0
20260509132232 88 0 0.0 0.0 0.00 0.00 0.00 62 975.0
20260509131206 89 0 0.0 0.0 0.00 0.00 0.00 61 975.0
20260509130142 89 0 0.0 0.0 0.00 0.00 0.00 62 975.0
20260509125117 88 0 0.0 0.0 0.00 0.00 0.00 63 975.0
20260509124051 89 0 0.0 0.0 0.00 0.00 0.00 61 975.0
20260509123026 90 0 0.0 0.0 0.00 0.00 0.00 60 975.0
20260509122001 90 0 0.0 0.0 0.00 0.00 0.00 60 975.0
20260509120937 90 0 0.0 0.0 0.00 0.00 0.00 58 975.0
20260509115909 90 0 0.0 0.0 0.00 0.00 0.00 59 974.0
20260509114501 90 0 0.0 0.0 0.00 0.00 0.00 59 974.0
20260509113435 90 0 0.0 0.0 0.00 0.00 0.00 57 974.0
20260509112410 90 0 0.0 0.0 0.00 0.00 0.00 58 974.0
20260509111345 88 0 0.0 0.0 0.00 0.00 0.00 61 974.0
20260509110320 89 0 0.0 0.0 0.00 0.00 0.00 58 974.0
20260509105255 89 0 0.0 0.0 0.00 0.00 0.00 59 974.0
20260509104230 89 0 0.0 0.0 0.00 0.00 0.00 60 973.0
20260509103205 90 0 0.0 0.0 0.00 0.00 0.00 58 973.0
20260509102140 90 0 0.0 0.0 0.00 0.00 0.00 58 973.0
20260509101114 90 0 0.0 0.0 0.00 0.00 0.00 58 973.0
20260509100048 89 0 0.0 0.0 0.00 0.00 0.00 60 973.0
20260509095024 93 0 0.0 0.0 0.00 0.00 0.00 53 973.0
20260509094000 93 0 0.0 0.0 0.00 0.00 0.00 53 973.0
20260509092935 93 0 0.0 0.0 0.00 0.00 0.00 51 973.0
20260509091909 92 0 0.0 0.0 0.00 0.00 0.00 52 973.0
20260509090845 94 0 0.0 0.0 0.00 0.00 0.00 49 973.0
20260509085820 96 0 0.0 0.0 0.00 0.00 0.00 46 973.0
20260509084754 95 0 0.0 0.0 0.00 0.00 0.00 47 974.0
20260509083729 95 0 0.0 0.0 0.00 0.00 0.00 48 974.0
20260509082704 95 0 0.0 0.0 0.00 0.00 0.00 48 974.0
20260509081639 95 0 0.0 0.0 0.00 0.00 0.00 49 974.0
20260509080614 94 0 0.0 0.0 0.00 0.00 0.00 50 974.0
20260509075550 94 0 0.0 0.0 0.00 0.00 0.00 50 974.0
20260509074524 94 0 0.0 0.0 0.00 0.00 0.00 52 974.0
20260509073459 96 0 0.0 0.0 0.00 0.00 0.00 47 974.0
20260509072434 97 0 0.0 0.0 0.00 0.00 0.00 47 974.0
20260509071410 96 0 0.0 0.0 0.00 0.00 0.00 49 974.0
20260509070345 97 0 0.0 0.0 0.00 0.00 0.00 48 974.0
20260509065320 97 0 0.0 0.0 0.00 0.00 0.00 48 975.0
20260509064254 101 0 0.0 0.0 0.00 0.00 0.00 42 975.0
20260509063229 100 0 0.0 0.0 0.00 0.00 0.00 43 975.0
20260509062203 98 0 0.0 0.0 0.00 0.00 0.00 46 975.0
20260509061138 99 0 0.0 0.0 0.00 0.00 0.00 45 975.0
20260509060113 99 0 0.0 0.0 0.00 0.00 0.00 44 976.0
20260509055048 98 0 0.0 0.0 0.00 0.00 0.00 45 976.0
20260509054023 99 0 0.0 0.0 0.00 0.00 0.00 44 976.0
20260509052959 98 0 0.0 0.0 0.00 0.00 0.00 44 976.0
20260509051933 97 0 0.0 0.0 0.00 0.00 0.00 45 976.0
20260509050908 99 0 0.0 0.0 0.00 0.00 0.00 45 976.0
20260509045842 99 0 0.0 0.0 0.00 0.00 0.00 45 976.0
20260509044817 98 0 0.0 0.0 0.00 0.00 0.00 47 977.0
20260509043750 97 0 0.0 0.0 0.00 0.00 0.00 48 977.0
20260509043353 97 0 0.0 0.0 0.00 0.00 0.00 48 977.0
20260509042328 96 0 0.0 0.0 0.00 0.00 0.00 50 977.0
20260509041303 96 0 0.0 0.0 0.00 0.00 0.00 50 977.0
20260509040238 95 0 0.0 0.0 0.00 0.00 0.00 52 977.0
20260509035213 93 0 0.0 0.0 0.00 0.00 0.00 54 978.0
20260509034148 94 0 0.0 0.0 0.00 0.00 0.00 54 978.0
20260509033121 94 0 0.0 0.0 0.00 0.00 0.00 53 978.0
20260509032055 93 0 0.0 0.0 0.00 0.00 0.00 56 978.0
20260509031029 93 0 0.0 0.0 0.00 0.00 0.00 57 978.0
20260509030004 90 0 0.0 0.0 0.00 0.00 0.00 61 978.0
20260509024938 91 0 0.0 0.0 0.00 0.00 0.00 59 979.0
20260509023913 91 0 0.0 0.0 0.00 0.00 0.00 61 979.0
20260509022849 91 0 0.0 0.0 0.00 0.00 0.00 61 979.0
20260509021822 89 0 0.0 0.0 0.00 0.00 0.00 64 979.0
20260509020757 89 0 0.0 0.0 0.00 0.00 0.00 64 979.0
20260509015732 90 0 0.0 0.0 0.00 0.00 0.00 63 979.0
20260509014707 89 0 0.0 0.0 0.00 0.00 0.00 64 979.0
20260509013641 89 0 0.0 0.0 0.00 0.00 0.00 63 979.0
20260509010322 88 0 0.0 0.0 0.00 0.00 0.00 64 978.0
20260509005256 90 0 0.0 0.0 0.00 0.00 0.00 61 978.0
20260509004230 90 0 0.0 0.0 0.00 0.00 0.00 60 978.0
20260509003203 90 0 0.0 0.0 0.00 0.00 0.00 60 978.0
20260509002137 89 0 0.0 0.0 0.00 0.00 0.00 61 978.0
20260509001111 90 0 0.0 0.0 0.00 0.00 0.00 58 978.0
20260509000045 91 0 0.0 0.0 0.00 0.00 0.00 57 978.0
20260508235018 90 0 0.0 0.0 0.00 0.00 0.00 58 977.0
20260508233951 90 0 0.0 0.0 0.00 0.00 0.00 58 977.0
20260508232925 89 0 0.0 0.0 0.00 0.00 0.00 59 977.0
20260508231859 90 0 0.0 0.0 0.00 0.00 0.00 56 977.0
20260508230834 89 0 0.0 0.0 0.00 0.00 0.00 58 977.0
20260508225810 90 0 0.0 0.0 0.00 0.00 0.00 57 977.0
20260508224745 89 0 0.0 0.0 0.00 0.00 0.00 59 977.0
20260508223720 90 0 0.0 0.0 0.00 0.00 0.00 57 977.0